DW7093 Weather Reports


Display with metric or nautical units.
time (UTC)temp
F
wind
direction
speed
MPH
gust
MPH
rain 1hr
in
rain 24hr
in
rain mn
in
humidity
%
barometer
mb
20260507084503 39 273 0.0 0.0 0.00 0.00 0.00 100 1014.9
20260507083002 39 355 0.0 3.0 0.00 0.00 0.00 100 1014.7
20260507081610 40 288 1.0 4.0 0.00 0.00 0.00 100 1014.8
20260507080114 40 297 1.0 4.0 0.00 0.00 0.00 100 1014.8
20260507074555 40 298 0.0 4.0 0.00 0.00 0.00 100 1014.8
20260507073053 40 285 0.0 4.0 0.00 0.00 0.00 100 1014.8
20260507071608 40 263 0.0 2.0 0.00 0.00 0.00 100 1014.7
20260507070049 41 313 0.0 3.0 0.00 0.00 0.00 100 1014.9
20260507064546 42 301 1.0 3.0 0.00 0.00 0.00 100 1014.9
20260507063046 42 306 2.0 5.0 0.00 0.00 0.00 100 1014.9
20260507061543 43 309 1.0 4.0 0.00 0.00 0.00 100 1015.1
20260507060041 43 309 1.0 4.0 0.00 0.00 0.00 100 1015.1
20260507054537 43 306 0.0 4.0 0.00 0.00 0.00 100 1015.0
20260507053102 43 290 0.0 1.0 0.00 0.00 0.00 100 1015.0
20260507051541 43 331 0.0 2.0 0.00 0.00 0.00 100 1015.0
20260507050036 43 257 1.0 3.0 0.00 0.00 0.00 100 1015.0
20260507044532 43 317 0.0 2.0 0.00 0.00 0.00 100 1014.9
20260507043029 44 298 0.0 2.0 0.00 0.00 0.00 100 1014.8
20260507041526 44 270 0.0 2.0 0.00 0.00 0.00 100 1014.7
20260507040027 45 321 0.0 1.0 0.00 0.00 0.00 100 1014.7
20260507034532 46 325 0.0 4.0 0.00 0.00 0.00 100 1014.7
20260507033034 47 297 0.0 7.0 0.00 0.00 0.00 100 1014.6
20260507031520 46 324 1.0 7.0 0.00 0.00 0.00 100 1014.6
20260507030025 46 251 0.0 1.0 0.00 0.00 0.00 100 1014.5
20260507024518 47 281 0.0 4.0 0.00 0.00 0.00 100 1014.4
20260507023025 48 275 0.0 1.0 0.00 0.00 0.00 100 1014.5
20260507021517 49 275 0.0 2.0 0.00 0.00 0.00 100 1014.4
20260507020020 49 290 1.0 6.0 0.00 0.00 0.00 91 1014.4
20260507014516 50 274 0.0 0.0 0.00 0.00 0.00 100 1014.4
20260507013015 50 271 0.0 4.0 0.00 0.00 0.00 100 1014.2
20260507011515 50 277 0.0 3.0 0.00 0.00 0.00 100 1014.1
20260507010022 50 279 0.0 2.0 0.00 0.00 0.00 100 1014.0
20260507004514 51 279 1.0 4.0 0.00 0.00 0.00 84 1013.8
20260507003013 51 308 0.0 0.0 0.00 0.00 0.00 93 1013.6
20260507001512 52 308 0.0 0.0 0.00 0.00 0.00 71 1013.6
20260507000016 52 308 0.0 0.0 0.00 0.00 0.00 94 1013.6
20260506234511 53 308 0.0 2.0 0.00 0.03 0.00 36 1013.7
20260506233010 53 308 0.0 2.0 0.00 0.03 0.00 27 1013.6
20260506231510 53 307 0.0 3.0 0.00 0.03 0.00 26 1013.7
20260506230010 54 313 1.0 4.0 0.00 0.03 0.00 25 1013.7
20260506224509 54 313 1.0 4.0 0.00 0.03 0.00 23 1013.9
20260506223008 55 310 0.0 4.0 0.00 0.03 0.00 23 1013.7
20260506221509 55 306 0.0 3.0 0.00 0.03 0.00 27 1013.6
20260506220018 55 317 2.0 5.0 0.00 0.03 0.00 27 1013.7
20260506214507 55 296 0.0 5.0 0.00 0.07 0.00 28 1013.7
20260506213005 56 299 2.0 8.0 0.00 0.07 0.00 28 1013.6
20260506211507 57 298 1.0 5.0 0.00 0.07 0.00 28 1013.6
20260506210007 57 289 3.0 10.0 0.00 0.07 0.00 24 1013.7
20260506204502 58 328 2.0 9.0 0.00 0.08 0.00 31 1013.7
20260506203059 57 329 1.0 9.0 0.00 0.08 0.00 36 1013.6
20260506201559 55 321 1.0 5.0 0.00 0.08 0.00 33 1013.7
20260506200106 56 320 1.0 4.0 0.00 0.08 0.00 35 1013.8
20260506194605 55 315 1.0 10.0 0.00 0.08 0.00 30 1014.0
20260506193059 55 328 1.0 6.0 0.00 0.08 0.00 31 1014.0
20260506191607 56 300 2.0 7.0 0.00 0.08 0.00 35 1014.2
20260506190055 56 317 1.0 4.0 0.00 0.08 0.00 29 1014.1
20260506184552 55 302 2.0 6.0 0.00 0.08 0.00 35 1014.2
20260506183053 55 304 2.0 8.0 0.00 0.08 0.00 37 1014.3
20260506181556 55 309 1.0 5.0 0.00 0.08 0.00 40 1014.4
20260506180105 54 257 1.0 6.0 0.00 0.08 0.00 40 1014.3
20260506174545 55 304 1.0 4.0 0.00 0.08 0.00 39 1014.3
20260506173054 54 337 0.0 2.0 0.00 0.08 0.00 45 1014.1
20260506171544 53 316 1.0 5.0 0.00 0.08 0.00 43 1014.3
20260506170041 53 325 0.0 5.0 0.00 0.08 0.00 45 1014.3
20260506164538 53 317 1.0 4.0 0.00 0.08 0.00 45 1014.4
20260506163041 53 311 2.0 6.0 0.00 0.08 0.00 52 1014.3
20260506161537 53 327 0.0 1.0 0.00 0.08 0.00 59 1014.4
20260506160037 52 309 0.0 2.0 0.00 0.08 0.00 64 1014.5
20260506154535 51 331 0.0 5.0 0.00 0.08 0.00 59 1014.5
20260506153033 52 328 0.0 7.0 0.00 0.08 0.00 62 1014.4
20260506151531 52 306 2.0 5.0 0.00 0.08 0.00 66 1014.2
20260506150029 52 317 0.0 3.0 0.00 0.08 0.00 73 1014.3
20260506144527 51 288 2.0 9.0 0.00 0.08 0.00 68 1014.1
20260506143029 52 302 0.0 2.0 0.00 0.08 0.00 70 1013.9
20260506141531 51 27 0.0 3.0 0.00 0.08 0.00 82 1013.8
20260506140021 50 22 0.0 0.0 0.00 0.08 0.00 100 1013.7
20260506134515 48 322 0.0 2.0 0.00 0.08 0.00 100 1013.5
20260506133016 48 5 0.0 1.0 0.00 0.08 0.00 100 1013.6
20260506131509 48 17 0.0 1.0 0.00 0.08 0.00 100 1013.1
20260506130007 47 22 0.0 3.0 0.00 0.08 0.00 100 1013.0
20260506124502 46 15 0.0 0.0 0.00 0.08 0.00 100 1012.8
20260506123100 45 355 0.0 0.0 0.00 0.08 0.00 100 1012.9
20260506121558 44 334 0.0 0.0 0.00 0.08 0.00 100 1012.8
20260506120101 43 306 0.0 0.0 0.00 0.08 0.00 100 1012.5
20260506114555 41 306 0.0 0.0 0.00 0.08 0.00 100 1012.5
20260506113053 40 305 0.0 2.0 0.00 0.08 0.00 100 1012.2
20260506111551 40 305 0.0 1.0 0.00 0.08 0.00 100 1011.7
20260506110049 40 305 0.0 1.0 0.00 0.08 0.00 100 1011.6
20260506104549 41 305 0.0 1.0 0.00 0.08 0.00 100 1011.1
20260506103042 41 305 0.0 1.0 0.00 0.08 0.00 100 1011.2
20260506101539 42 304 0.0 3.0 0.00 0.08 0.00 100 1010.9
20260506100036 43 311 0.0 0.0 0.00 0.08 0.00 100 1010.8
20260506094535 44 311 0.0 0.0 0.00 0.08 0.00 100 1010.9
20260506093038 45 323 0.0 0.0 0.00 0.08 0.00 100 1010.7
20260506091533 45 323 0.0 0.0 0.00 0.08 0.00 100 1010.5
20260506090031 45 323 0.0 0.0 0.00 0.08 0.00 100 1010.7